This is the latest recevied weather packets stored in our database for station/object DC4XK-10. If no packets are shown the sender has not sent any weather packets the latest 10 day(s).
| Time | Temp. | Humidity | Pressure | Rain* | Wind** | Luminosity | Snow |
|---|---|---|---|---|---|---|---|
| 1777502331 | 5° C | 85% | 1030.4 hPa | 0 mm | 0 m/s | - | - |
| 1777501730 | 5.56° C | 81% | 1030.2 hPa | 0 mm | 0 m/s | - | - |
| 1777501131 | 5.56° C | 80% | 1030.2 hPa | 0 mm | 0 m/s | - | - |
| 1777500531 | 6.11° C | 78% | 1029.9 hPa | 0 mm | 0 m/s | - | - |
| 1777499931 | 5.56° C | 73% | 1030 hPa | 0 mm | 0 m/s | - | - |
| 1777499331 | 6.11° C | 70% | 1030.1 hPa | 0 mm | 0 m/s | - | - |
| 1777498731 | 6.11° C | 72% | 1030 hPa | 0 mm | 0 m/s | - | - |
| 1777498130 | 6.11° C | 70% | 1030.1 hPa | 0 mm | 0 m/s | - | - |
| 1777497531 | 6.11° C | 72% | 1030 hPa | 0 mm | 0 m/s | - | - |
| 1777496932 | 6.11° C | 72% | 1029.8 hPa | 0 mm | 0 m/s | - | - |
| 1777496330 | 6.11° C | 76% | 1029.7 hPa | 0 mm | 0 m/s | - | - |
| 1777495731 | 5.56° C | 78% | 1030 hPa | 0 mm | 0 m/s | - | - |
| 1777495133 | 5.56° C | 79% | 1029.9 hPa | 0 mm | 0 m/s | - | - |
| 1777494531 | 5.56° C | 77% | 1030 hPa | 0 mm | 0 m/s | - | - |
| 1777493931 | 5.56° C | 75% | 1030.1 hPa | 0 mm | 0 m/s | - | - |
| 1777493334 | 5.56° C | 75% | 1029.7 hPa | 0 mm | 0 m/s | - | - |
| 1777492731 | 6.11° C | 73% | 1029.6 hPa | 0 mm | 0 m/s | - | - |
| 1777492131 | 6.67° C | 69% | 1029.8 hPa | 0 mm | 0 m/s | - | - |
| 1777491532 | 7.22° C | 68% | 1029.6 hPa | 0 mm | 0 m/s | - | - |
| 1777490931 | 8.33° C | 64% | 1029.9 hPa | 0 mm | 0 m/s | - | - |
| 1777490331 | 8.33° C | 59% | 1029.5 hPa | 0 mm | 0 m/s | - | - |
| 1777489731 | 8.33° C | 61% | 1029.4 hPa | 0 mm | 0 m/s | - | - |
| 1777489130 | 9.44° C | 59% | 1029.8 hPa | 0 mm | 0 m/s | - | - |
| 1777488531 | 10° C | 55% | 1029.5 hPa | 0 mm | 0 m/s | - | - |
| 1777487931 | 10.56° C | 54% | 1029.3 hPa | 0 mm | 0 m/s | - | - |
* Rain latest hour (hover to see other rain measurements)
** Current wind speed in m/s (hover to see current wind gust speed)